{"data":{"norad_id":57931,"intl_designator":"2023-147U","name":"STARLINK-30488","alt_names":[],"object_type":"PAYLOAD","status":"ACTIVE","operator":null,"country":"US","launch_date":"2023-09-24","launch_site_code":"AFETR","launch_vehicle":null,"mission":null,"orbit_class":"UNKNOWN","rcs_meters":null,"size_class":null,"mass_kg":null,"dimensions":null,"purposes":["comms"],"wikipedia_slug":null,"has_3d_model":false,"image_url":null,"decayed_at":null,"tle_current":{"epoch":"2026-09-20T04:38:15.253440Z","epoch_age_seconds":161093,"freshness":"FRESH","line1":"1 57931U 23147U   26263.19323210  .00000025  00000+0  10438-4 0  9998","line2":"2 57931  43.0059 310.2576 0001740 281.2949  78.7707 15.27574002166337","mean_motion":15.27574002,"eccentricity":0.000174,"inclination_deg":43.0059,"raan_deg":310.2576,"arg_perigee_deg":281.2949,"mean_anomaly_deg":78.7707,"bstar":1.0438e-5,"rev_number":16633,"period_min":94.267118850848,"perigee_km":481.8732067624,"apogee_km":484.26090577398,"semimajor_km":6861.2040562682,"source":"CELESTRAK","updated_at":"2026-09-21T09:00:33.743246Z"}}}